George, South Africa

8:42 PM SAST on May 25, 2017 (GMT +0200)
George

Weather History for FAGG - January, 2014

Change the Weather History Date:

Monday, January 13, 2014

  Actual Average Record
Temperature  
Mean Temperature 64 °F -  
Max Temperature 68 °F 74 °F 79 °F (2015)
Min Temperature 57 °F 58 °F 59 °F (2017)
Degree Days  
Heating Degree Days 2    
Growing Degree Days 14 (Base 50)    
Moisture  
Dew Point 54 °F    
Average Humidity 73    
Maximum Humidity 94    
Minimum Humidity 47    
Precipitation  
Precipitation 0.00 in - - ()
Sea Level Pressure  
Sea Level Pressure 30.20 in    
Wind  
Wind Speed 4 mph ()    
Max Wind Speed 10 mph    
Max Gust Speed -    
Visibility 7.0 miles    
Events Rain    
Averages and records for this station are not official NWS values.
T = Trace of Precipitation, MM = Missing Value Source: Averaged Metar Reports

Daily Weather History Graph

Daily Weather History Graph

Search for Another Location

Airport or City:

Trip Planner

Search our weather history database for the weather conditions in past years. The results will help you decide how hot, cold, wet, or windy it might be!

Date:

Astronomy

Jan. 13, 2014 Rise Set
Actual Time 5:32 AM SAST 7:45 PM SAST
Civil Twilight 5:04 AM SAST 8:13 PM SAST
Nautical Twilight 4:29 AM SAST 8:48 PM SAST
Astronomical Twilight 3:51 AM SAST 9:25 PM SAST
Moon 5:35 PM SAST (1/13) 3:16 AM SAST (1/13)
Length of Visible Light 15h 09m
Length of Day
14h 12m
Waxing Gibbous, 93% of the Moon is Illuminated
Jan 13
Waxing Gibbous
Jan 16
Full
Jan 24
Last Quarter
Jan 30
New
Feb 6
First Quarter

Hourly Weather History & Observations

Time (SAST) Temp. Dew Point Humidity Pressure Visibility Wind Dir Wind Speed Gust Speed Precip Events Conditions
12:00 AM 62.6 °F 59.0 °F 88% 30.21 in 3.7 mi West 3.5 mph - N/A Rain Rain
1:00 AM 60.8 °F 59.0 °F 94% 30.21 in 3.7 mi West 3.5 mph - N/A Rain Light Rain
2:00 AM 61 °F 58 °F 87% 30.20 in 6 mi 2.3 mph - -  
2:00 AM 60.8 °F 59.0 °F 94% 30.18 in 6.2 mi Variable 2.3 mph - N/A Rain Light Rain
3:00 AM 60.8 °F 57.2 °F 88% 30.18 in 5.6 mi NW 3.5 mph - N/A Rain Light Rain
4:00 AM 60.8 °F 57.2 °F 88% 30.18 in 6.2 mi West 2.3 mph - N/A Rain Light Rain
5:00 AM 60 °F 56 °F 82% 30.21 in 6 mi South 5.8 mph - - Rain Light Rain
5:00 AM 59.0 °F 55.4 °F 88% 30.18 in 5.6 mi South 5.8 mph - N/A Rain Light Rain
6:00 AM 59.0 °F 53.6 °F 82% 30.21 in 6.2 mi South 6.9 mph - N/A   Mostly Cloudy
7:00 AM 60.8 °F 55.4 °F 82% 30.21 in 6.2 mi North 3.5 mph - N/A   Mostly Cloudy
8:00 AM 61 °F 54 °F 71% 30.25 in 12 mi 2.3 mph - -   Overcast
8:00 AM 60.8 °F 53.6 °F 77% 30.24 in 6.2 mi Variable 2.3 mph - N/A   Mostly Cloudy
9:00 AM 62.6 °F 53.6 °F 72% 30.24 in 6.2 mi South 8.1 mph - N/A   Mostly Cloudy
10:00 AM 62.6 °F 51.8 °F 68% 30.24 in 6.2 mi South 5.8 mph - N/A   Mostly Cloudy
11:00 AM 63 °F 51 °F 56% 30.25 in 12 mi South 5.8 mph - -   Mostly Cloudy
11:00 AM 62.6 °F 51.8 °F 68% 30.24 in 6.2 mi South 5.8 mph - N/A   Mostly Cloudy
12:00 PM 64.4 °F 51.8 °F 64% 30.24 in 6.2 mi Variable 3.5 mph - N/A   Mostly Cloudy
1:00 PM 66.2 °F 51.8 °F 60% 30.21 in 6.2 mi Variable 1.2 mph - N/A   Mostly Cloudy
2:00 PM 68 °F 53 °F 47% 30.20 in 12 mi South 8.1 mph - -   Mostly Cloudy
2:00 PM 68.0 °F 53.6 °F 60% 30.21 in 6.2 mi South 9.2 mph - N/A   Mostly Cloudy
3:00 PM 68.0 °F 53.6 °F 60% 30.21 in 6.2 mi SSE 9.2 mph - N/A   Mostly Cloudy
4:00 PM 66.2 °F 53.6 °F 64% 30.18 in 6.2 mi SSE 10.4 mph - N/A   Mostly Cloudy
5:00 PM 65 °F 53 °F 57% 30.17 in 12 mi SE 9.2 mph - -   Mostly Cloudy
5:00 PM 64.4 °F 51.8 °F 64% 30.18 in 6.2 mi SE 9.2 mph - N/A   Mostly Cloudy
6:00 PM 64.4 °F 53.6 °F 68% 30.15 in 6.2 mi SE 9.2 mph - N/A   Mostly Cloudy
7:00 PM 64.4 °F 51.8 °F 64% 30.18 in 6.2 mi ESE 6.9 mph - N/A   Mostly Cloudy
8:00 PM 63 °F 53 °F 62% 30.18 in 12 mi ESE 6.9 mph - -   Mostly Cloudy
8:00 PM 62.6 °F 53.6 °F 72% 30.18 in 6.2 mi ESE 8.1 mph - N/A   Mostly Cloudy
9:00 PM 60.8 °F 53.6 °F 77% 30.15 in 6.2 mi East 4.6 mph - N/A   Mostly Cloudy
10:00 PM 59.0 °F 53.6 °F 82% 30.15 in - East 5.8 mph - N/A   Clear
11:00 PM 57.2 °F 51.8 °F 82% 30.15 in - East 6.9 mph - N/A   Clear